Location: Ammerl�gen
(47.2167°N, 9.6000°E)
Time: 20:23:20
(UTC+00:00)

Envisat - Pass Details

Date: 02 October 2021
Orbit: 764 x 766 km, 98.2° (Epoch: 27 October)

Event Time Altitude Azimuth Distance (km) Brightness Sun altitude
Rises 04:35:23 0° 14° (NNE) 3,243 6.5 -8.7°
Reaches altitude 10° 04:37:42 10° 15° (NNE) 2,312 5.7 -8.3°
Maximum altitude 04:42:48 82° 103° (ESE) 778 3.2 -7.5°
Drops below altitude 10° 04:47:52 10° 192° (SSW) 2,294 5.3 -6.6°
Sets 04:50:10 0° 193° (SSW) 3,216 6.1 -6.2°
